TimeCST,TemperatureF,Dew PointF,Humidity,Sea Level PressureIn,VisibilityMPH,Wind Direction,Wind SpeedMPH,Gust SpeedMPH,PrecipitationIn,Events,Conditions,WindDirDegrees,DateUTC
12:52 AM,1.0,-8.0,66,30.35,10.0,WNW,10.4,-,N/A,,Clear,290,2011-12-09 06:52:00
1:52 AM,1.0,-8.0,66,30.36,10.0,WNW,10.4,-,N/A,,Clear,290,2011-12-09 07:52:00
2:52 AM,-0.0,-8.0,69,30.37,10.0,West,11.5,-,N/A,,Clear,280,2011-12-09 08:52:00
3:52 AM,-0.0,-8.0,69,30.38,10.0,WNW,10.4,-,N/A,,Clear,290,2011-12-09 09:52:00
4:52 AM,-0.9,-8.0,72,30.39,10.0,WNW,4.6,-,N/A,,Clear,300,2011-12-09 10:52:00
5:52 AM,-0.9,-8.0,72,30.41,10.0,WNW,6.9,-,N/A,,Clear,300,2011-12-09 11:52:00
6:52 AM,-2.0,-9.0,72,30.43,10.0,WNW,6.9,-,N/A,,Clear,290,2011-12-09 12:52:00
7:52 AM,-2.0,-9.0,72,30.45,10.0,WNW,8.1,-,N/A,,Clear,290,2011-12-09 13:52:00
8:52 AM,-2.9,-9.0,75,30.46,10.0,West,4.6,-,N/A,,Clear,260,2011-12-09 14:52:00
9:52 AM,1.0,-7.1,69,30.47,10.0,WSW,4.6,-,N/A,,Clear,250,2011-12-09 15:52:00
10:52 AM,5.0,-4.0,66,30.47,10.0,WSW,6.9,-,N/A,,Clear,250,2011-12-09 16:52:00
11:52 AM,7.0,-2.9,64,30.44,10.0,SSW,6.9,-,N/A,,Clear,210,2011-12-09 17:52:00
12:52 PM,10.9,-0.0,61,30.43,10.0,SSW,8.1,-,N/A,,Clear,210,2011-12-09 18:52:00
1:52 PM,14.0,1.0,56,30.40,10.0,SW,4.6,-,N/A,,Clear,220,2011-12-09 19:52:00
2:52 PM,17.1,1.9,52,30.37,10.0,WSW,5.8,-,N/A,,Clear,240,2011-12-09 20:52:00
3:52 PM,17.1,3.9,56,30.35,10.0,SSW,5.8,-,N/A,,Clear,210,2011-12-09 21:52:00
4:52 PM,8.1,1.9,76,30.34,10.0,SE,6.9,-,N/A,,Clear,140,2011-12-09 22:52:00
5:52 PM,7.0,-0.0,73,30.34,10.0,South,5.8,-,N/A,,Clear,170,2011-12-09 23:52:00
6:52 PM,10.9,3.9,73,30.32,10.0,Calm,Calm,-,N/A,,Overcast,0,2011-12-10 00:52:00
7:52 PM,14.0,7.0,74,30.29,10.0,NE,3.5,-,N/A,,Overcast,50,2011-12-10 01:52:00
8:52 PM,19.9,12.0,71,30.26,10.0,South,3.5,-,N/A,,Overcast,190,2011-12-10 02:52:00
9:52 PM,19.9,12.0,71,30.24,10.0,Calm,Calm,-,N/A,,Overcast,0,2011-12-10 03:52:00
10:52 PM,16.0,10.0,77,30.22,10.0,Calm,Calm,-,N/A,,Partly Cloudy,0,2011-12-10 04:52:00
11:52 PM,21.0,12.9,71,30.19,10.0,SSW,4.6,-,N/A,,Overcast,210,2011-12-10 05:52:00